Regional Weather Roundup
Issued by NWS Sioux Falls, SD

Home | Current Version | Previous Version | Graphics & Text | Print | Product List | Glossary Off
Versions: 1 2 3 4 5 6 7 8 9 10 11 12 13 14 15 16 17 18 19 20 21 22 23 24 25 26 27 28 29 30 31 32 33 34 35 36 37 38 39 40 41 42 43 44 45 46 47 48 49 50

000
ASUS43 KFSD 290102
RWRFSD

WEATHER ROUNDUP FOR SE SOUTH DAKOTA/SW MINNESOTA/NW IOWA
NATIONAL WEATHER SERVICE SIOUX FALLS SD
800 PM CDT THU MAY 28 2015

NOTE: "FAIR" INDICATES FEW OR NO CLOUDS BELOW 12,000 FEET WITH NO
SIGNIFICANT WEATHER AND OR OBSTRUCTIONS TO VISIBILITY.


SDZ038>040-050-052>070-290200-
SOUTHEAST SOUTH DAKOTA

CITY           SKY/WX    TMP DP  RH WIND       PRES   REMARKS
BROOKINGS      PTCLDY    73  55  53 S15       29.86R
CHAMBERLAIN    CLOUDY    65  62  90 SW5       29.84R
HURON            N/A    N/A N/A N/A MISG      29.80R
MADISON        FAIR      72  57  60 S18       29.86R
MITCHELL       MOCLDY    77  62  59 S17G24    29.82R
SIOUX FALLS    MOCLDY    72  56  57 S17       29.88R
WINNER         FAIR      66  58  75 S7        29.85F
YANKTON        MOCLDY    73  61  64 S12G18    29.85R
$$

MNZ071-072-080-081-089-090-097-098-290200-
SOUTHWEST MINNESOTA

CITY           SKY/WX    TMP DP  RH WIND       PRES   REMARKS
FAIRMONT       PTCLDY    72  55  56 S22       29.90F
JACKSON        MOCLDY    70  59  68 S21       29.92S
LUVERNE        MOCLDY    72  57  60 S15G22    29.89R
MARSHALL       MOCLDY    77  55  47 S17G25    29.84R
MONTEVIDEO     PTCLDY    81  55  41 SW16G22   29.82R
REDWOOD FALLS  PTCLDY    78  57  48 S20G28    29.85R
TRACY          MOCLDY    75  59  56 S13G26    29.87R
WINDOM         PTCLDY    72  57  60 S15G26    29.90S
WORTHINGTON    MOCLDY    70  57  64 S18G26    29.91R
$$

IAZ001>003-012>014-020>022-031-032-NEZ013-014-SDZ071-290200-
NORTHWEST IOWA

CITY           SKY/WX    TMP DP  RH WIND       PRES   REMARKS
DENISON        MOCLDY    68  68 100 S10G18    29.91S
ESTHERVILLE    MOCLDY    68  60  75 S18G28    29.91F
SIOUX CITY     MOCLDY    72  63  73 S14       29.89R
SPENCER        CLOUDY    68  61  78 S17       29.92F
$$

ABBREVIATIONS USED IN REMARKS
   TC - TEMPERATURE IN CELSIUS
  WCI - WIND CHILL INDEX
   HX - HEAT INDEX
  VSB - VISIBILITY




USA.gov is the U.S. government's official web portal to all federal, state and local government web resources and services.